Theta_e
282 280 279 278 277 278 277 276 275 275 274 274 274 274 274 274 274 274 274 274 275 275 276 276 277 277 278 278 279 279 280 280 282 282 284 288 290 293 298 299 300 300 300
280 279 278 277 278 277 276 275 274 274 273 273 272 272 272 272 272 272 272 272 272 272 273 273 274 275 276 276 277 278 278 278 280 282 285 286 288 289 298 299 301 302 302
278 278 277 277 276 275 275 274 273 272 272 272 271 271 270 270 270 270 270 270 270 270 270 271 272 272 273 274 275 276 276 277 277 279 282 286 288 289 298 298 298 298 298
277 276 276 275 275 275 275 274 273 272 271 270 270 269 269 269 269 269 269 269 270 271 271 271 272 272 272 273 274 275 275 276 277 278 280 286 287 291 297 298 299 299 299
276 276 275 274 275 274 273 272 272 271 270 269 268 268 269 269 268 269 270 271 271 272 272 272 272 272 273 274 275 275 275 276 277 279 283 285 287 294 297 297 295 294 295
276 275 273 274 274 272 272 272 271 270 269 268 268 268 268 268 268 270 271 272 272 272 272 272 272 273 273 275 276 277 278 278 278 279 280 284 287 291 295 295 294 294 294
275 273 273 273 272 271 271 270 269 268 268 268 268 268 268 268 269 270 271 271 272 272 273 273 273 274 274 275 276 276 277 278 279 280 281 282 285 286 292 294 293 292 293
274 273 272 271 270 270 269 268 268 268 268 268 267 267 267 268 268 269 271 271 271 272 272 273 273 274 275 276 277 277 278 278 278 278 280 281 284 285 287 292 292 291 291
272 271 271 270 269 268 268 268 268 268 267 267 267 267 267 267 267 269 271 271 272 273 273 273 273 273 274 275 277 278 279 280 279 279 280 281 285 287 291 291 290 291 292
272 270 269 269 269 268 267 268 268 268 266 266 267 266 266 266 267 270 271 272 273 273 274 274 274 275 276 277 277 278 280 281 280 280 280 281 284 288 288 289 291 291 291
270 269 268 268 268 268 267 268 268 267 265 265 265 267 268 269 269 270 272 273 274 275 274 273 273 273 274 275 277 278 280 281 281 280 281 282 286 287 288 290 290 289 290
268 267 267 267 267 267 267 267 267 265 265 266 267 269 270 269 270 271 273 274 274 273 272 272 272 273 275 276 277 278 279 281 283 282 281 285 286 288 289 290 290 291 290
266 266 266 266 266 267 266 266 266 265 266 267 269 270 270 269 270 271 272 273 272 271 271 271 270 271 274 274 276 278 279 280 281 284 284 284 287 288 288 289 290 291 291
266 265 265 265 265 265 265 265 265 266 267 269 269 269 269 270 270 272 272 271 270 270 270 267 269 271 272 276 276 278 280 280 282 283 286 285 287 288 289 291 291 292 292
266 265 265 265 264 264 264 265 265 266 267 269 269 269 269 270 271 272 272 271 270 270 268 266 268 270 270 271 272 273 274 276 279 284 286 287 288 290 291 292 292 292 293
265 265 265 264 264 263 264 264 264 265 266 267 268 269 269 270 271 271 271 270 269 268 265 266 267 268 270 270 270 271 272 273 275 276 283 289 289 291 291 292 292 292 294
265 264 263 263 263 263 263 263 265 265 265 264 265 267 268 269 269 269 269 268 267 266 265 265 266 267 268 269 269 270 271 272 272 274 276 279 289 291 292 292 292 293 301
264 263 263 262 262 261 261 261 260 261 261 262 263 265 265 267 268 268 267 265 264 264 265 265 265 266 267 268 269 269 269 271 271 271 273 276 279 284 292 292 293 298 304
262 261 261 261 260 260 260 259 259 259 259 260 261 263 265 264 265 265 264 263 263 263 264 264 265 266 266 267 268 269 269 270 271 270 271 273 276 278 289 293 298 301 303
262 262 261 260 259 259 259 259 259 259 259 259 260 260 263 262 262 262 262 262 262 262 263 264 264 266 266 267 268 269 268 271 270 269 270 271 272 274 290 297 299 300 302
260 260 260 259 259 258 258 258 258 258 258 258 258 259 264 260 260 261 261 261 261 261 262 263 264 265 266 267 268 269 269 270 269 269 269 270 271 275 286 299 299 300 302
260 259 259 259 258 258 257 258 257 257 257 257 257 258 259 259 258 259 260 260 260 261 262 262 263 265 266 266 269 269 269 270 269 268 268 269 271 273 278 298 299 299 299
260 259 258 258 258 258 258 257 257 257 257 256 256 257 257 258 258 258 258 260 260 261 263 262 263 264 265 266 268 268 269 270 268 267 268 269 271 273 278 292 297 297 298
260 259 258 257 257 257 257 256 256 257 256 256 256 256 256 258 258 258 258 260 261 263 263 263 263 264 265 266 268 268 268 270 268 267 268 269 270 272 275 289 298 298 298
259 258 258 257 257 257 257 257 256 256 256 256 256 256 257 258 258 258 259 260 261 262 263 264 265 265 265 266 269 268 268 270 268 267 267 268 269 270 272 282 296 297 297
259 258 258 258 258 258 257 257 256 256 256 257 256 257 257 257 257 258 259 259 260 262 263 264 265 266 266 267 269 269 268 269 268 267 267 267 268 268 269 271 276 288 296
Wind_Speed
24 20 18 16 14 11 10 10 12 13 14 15 16 16 18 20 22 23 25 26 29 32 32 36 39 38 37 35 35 36 35 32 18 33 40 36 41 43 46 38 34 34 36
25 21 18 15 13 11 10 10 11 13 14 14 16 17 18 20 21 23 25 26 29 32 34 36 38 37 38 35 35 36 35 36 34 21 32 38 40 48 43 34 27 24 26
25 23 19 16 13 10 10 11 11 12 13 14 14 17 19 20 22 23 25 27 29 31 33 35 37 36 36 34 35 36 33 34 35 31 31 36 35 44 30 28 29 30 33
25 22 18 15 13 11 9 9 9 10 13 14 15 17 19 20 22 23 23 27 31 33 35 37 38 36 36 35 34 34 33 34 33 31 31 32 32 43 24 21 21 23 26
25 21 17 14 11 8 8 7 8 9 11 15 16 16 19 20 20 22 27 30 34 37 36 37 37 37 38 40 36 34 33 31 30 27 22 26 25 27 15 17 11 19 26
23 19 17 14 11 8 7 7 8 9 12 14 15 16 20 21 22 26 29 33 35 36 37 37 36 36 38 40 42 44 43 37 34 28 25 15 21 28 17 17 14 8 8
23 21 18 15 11 8 6 6 7 9 12 13 14 16 20 22 23 29 31 34 36 35 36 36 36 35 36 36 38 41 41 42 44 42 34 33 29 32 23 13 8 7 10
24 24 20 16 12 7 5 4 6 8 11 14 17 18 19 22 25 28 32 35 34 35 35 36 36 37 36 37 36 37 39 40 40 40 41 40 41 38 36 20 11 16 25
22 21 19 15 12 8 4 3 6 9 11 14 15 19 21 25 25 28 31 34 34 35 36 36 36 37 38 39 39 37 39 33 36 41 43 46 44 39 30 15 12 8 10
21 18 15 13 9 6 3 2 6 10 12 13 17 18 21 28 24 28 31 33 35 36 38 36 35 37 38 39 38 35 31 36 32 32 33 36 39 38 45 38 21 9 9
23 20 16 12 9 6 2 3 6 9 11 13 16 19 22 23 26 28 31 35 35 37 34 36 35 38 41 41 41 38 34 37 30 31 31 30 29 27 26 24 28 26 19
23 19 15 12 9 6 3 2 4 7 9 13 17 19 20 23 26 29 34 36 40 37 35 34 37 41 43 41 40 39 40 40 31 27 28 26 27 26 29 28 28 29 36
22 20 17 13 9 6 4 2 3 4 7 13 16 20 22 23 25 30 34 37 38 36 34 39 39 39 35 33 31 31 34 31 28 24 23 26 27 27 27 29 29 32 38
23 18 15 11 9 6 5 3 3 3 7 12 16 19 22 24 26 31 33 35 33 32 33 30 32 33 30 22 23 23 22 23 25 25 23 26 29 27 28 30 27 27 26
22 18 16 13 10 8 6 4 2 1 7 12 15 18 20 23 27 33 35 36 33 33 31 28 28 28 26 25 24 24 23 23 25 26 25 23 24 24 25 25 23 23 16
22 17 14 11 8 7 6 4 2 1 6 7 12 14 17 22 27 29 32 32 30 31 25 24 24 26 24 26 25 25 24 24 23 24 19 23 22 21 21 22 20 18 12
24 22 18 12 9 8 6 4 4 5 7 6 11 11 16 21 23 26 29 29 25 28 22 25 24 27 27 27 27 25 25 26 25 21 21 22 17 20 20 17 18 19 14
24 23 20 15 13 11 9 6 4 5 8 10 10 13 18 21 20 23 27 27 28 29 25 25 26 29 31 29 29 28 28 27 26 24 22 22 19 19 14 11 16 13 12
26 22 20 17 14 12 10 9 6 3 1 6 9 13 21 21 17 20 24 23 24 26 27 28 29 31 33 33 34 34 33 29 29 26 24 22 20 17 17 20 20 16 16
23 25 23 19 17 12 10 9 6 3 2 4 7 10 17 16 17 21 21 22 24 25 28 29 31 32 34 33 34 33 33 28 28 25 24 24 24 22 22 17 12 9 11
27 26 21 16 13 11 10 9 6 3 1 3 6 8 12 10 12 15 19 21 23 26 28 30 32 33 36 35 36 35 34 32 31 29 27 25 24 22 22 18 14 19 19
30 26 19 17 15 12 12 9 6 3 2 4 5 8 10 11 13 15 18 22 25 28 28 29 31 33 36 36 41 40 38 37 35 32 29 27 24 22 20 12 13 14 11
30 23 20 16 16 17 14 9 6 3 3 3 5 8 10 12 15 16 20 26 29 30 34 32 32 35 38 38 42 42 40 40 38 36 31 28 25 21 19 11 11 10 11
28 21 18 17 15 14 12 9 7 5 3 2 4 7 9 13 15 18 22 28 30 32 33 35 33 37 41 41 43 48 46 46 41 39 34 30 27 25 21 15 14 10 14
26 21 19 18 17 14 13 10 7 5 2 1 4 7 10 13 15 18 22 27 30 32 34 34 36 40 42 39 43 50 53 52 49 46 38 35 31 30 26 16 10 16 13
22 20 19 18 16 15 12 9 7 5 2 2 5 7 10 13 15 18 22 26 29 31 33 34 37 40 40 39 38 44 53 54 54 49 42 38 37 35 29 25 21 5 15
Wind_Direction
185 188 192 200 209 224 244 263 272 281 288 294 301 300 297 295 291 287 283 281 279 278 276 274 271 270 267 263 260 261 258 261 266 270 269 278 271 283 263 255 256 263 269
183 185 192 199 208 223 241 260 276 287 294 303 305 301 296 295 295 292 291 286 284 283 282 279 276 276 271 268 265 262 263 262 267 276 279 265 267 272 263 255 253 261 273
179 185 191 199 207 221 249 270 282 290 301 305 302 300 302 302 299 295 293 291 289 286 285 282 279 276 273 270 265 265 266 268 269 269 267 273 272 276 258 259 265 266 265
179 184 189 195 202 223 244 264 280 296 308 305 301 298 298 300 301 299 298 298 294 289 286 281 277 273 271 271 267 265 264 263 264 268 269 269 264 276 264 270 265 274 270
178 180 186 193 202 225 253 269 291 305 303 297 301 305 306 306 301 303 304 299 296 294 290 285 279 275 271 267 265 263 262 263 264 266 261 262 266 268 255 259 278 297 303
175 177 181 188 200 220 245 275 295 297 299 306 307 311 312 309 306 307 304 301 299 297 293 289 285 280 274 270 267 264 262 259 261 263 271 273 268 281 268 265 277 289 304
172 176 182 188 197 213 239 274 290 302 311 309 311 313 310 309 309 310 308 304 301 299 295 293 289 281 277 271 269 269 268 266 263 264 263 259 266 270 284 259 252 259 268
172 176 181 184 191 200 228 273 297 310 313 314 314 313 309 310 311 312 312 308 301 297 295 293 288 283 278 273 270 266 264 256 257 262 262 263 263 260 268 268 260 282 285
175 177 180 182 181 188 209 270 302 313 315 314 309 310 309 309 312 314 314 308 300 301 296 293 286 281 280 279 277 275 273 261 260 262 263 257 265 252 241 254 253 262 283
172 173 175 179 177 171 178 314 323 324 313 312 314 312 307 299 308 316 315 308 303 303 297 288 285 282 281 279 276 276 275 278 256 259 260 258 262 253 248 252 238 252 275
160 163 165 171 169 165 135 357 331 323 317 321 318 317 309 310 311 318 319 314 308 307 311 305 299 296 290 283 278 276 278 282 256 258 260 253 255 252 245 239 238 240 256
154 155 161 163 165 157 127 52 348 331 329 331 323 318 318 320 321 321 323 322 319 318 311 308 305 303 293 286 276 274 274 276 268 242 248 251 241 232 233 230 236 245 244
152 154 159 157 161 155 136 85 53 351 343 329 323 323 322 325 324 326 329 329 325 322 314 320 320 317 301 283 287 281 278 275 277 238 236 244 247 243 245 242 243 239 247
149 152 153 160 159 147 128 106 63 358 339 326 330 325 325 329 330 333 338 336 331 327 330 332 328 334 336 327 304 307 284 275 266 265 243 238 247 243 237 230 232 238 252
154 155 156 160 158 142 119 108 90 343 326 326 327 327 333 332 334 340 344 342 335 335 338 341 337 341 340 338 334 331 324 309 310 251 248 245 245 238 235 230 235 247 249
151 156 154 152 145 124 108 107 67 16 354 334 323 330 339 337 338 342 345 345 343 349 351 344 344 337 340 337 335 332 326 323 319 320 295 248 231 226 234 236 237 250 252
152 152 146 145 141 120 106 89 58 22 16 325 341 346 357 347 348 349 347 344 343 353 359 350 338 341 332 339 334 332 322 320 318 310 300 291 271 236 239 240 249 251 242
149 146 144 147 144 139 137 121 90 42 350 338 341 0 4 357 354 357 355 350 345 354 356 346 339 335 336 334 336 332 327 324 325 318 304 291 283 280 247 242 245 243 197
150 146 143 143 143 144 138 127 121 115 248 300 336 11 11 356 357 5 6 356 342 340 346 342 339 337 338 334 338 335 333 325 324 315 303 294 288 293 266 245 239 208 181
150 150 146 147 145 143 141 128 115 98 18 344 360 354 0 352 360 355 357 351 344 340 344 339 338 338 339 338 340 335 330 328 327 319 316 315 306 290 261 228 204 173 181
147 147 148 143 142 146 130 121 114 116 61 358 348 357 356 352 347 349 345 350 344 340 339 337 337 338 340 339 345 342 337 339 339 332 324 311 302 291 292 200 174 172 175
147 148 147 145 150 137 129 119 129 115 63 25 337 353 357 6 357 348 343 345 347 352 345 335 335 339 341 339 348 347 344 347 342 335 324 315 306 298 303 180 158 162 157
147 143 147 151 143 138 125 137 132 120 76 23 351 352 5 3 1 350 340 351 355 357 359 348 340 340 345 345 355 354 349 352 344 337 330 324 322 320 318 294 141 149 161
145 149 151 147 146 139 142 146 138 110 86 357 0 3 0 3 357 348 347 354 359 2 3 359 351 346 346 346 356 359 357 358 356 351 346 346 340 338 326 281 187 175 169
147 151 152 152 149 147 150 143 146 134 138 32 8 0 3 5 356 350 348 354 357 1 4 5 4 358 352 352 360 2 3 6 6 4 4 3 1 1 353 352 191 187 170
150 153 154 153 151 152 149 151 151 148 149 9 354 3 2 358 350 347 348 351 354 358 2 5 8 7 2 356 3 5 7 10 10 11 12 14 14 14 11 8 10 14 190